Waco, TX

7:52 AM CST on December 03, 2016 (GMT -0600)
Waco Regional

Weather History for KACT - October, 2011

Change the Weather History Date:

Sunday, October 9, 2011

  Actual Average Record
Temperature  
Mean Temperature 70 °F 70 °F  
Max Temperature 78 °F 82 °F 94 °F (1963)
Min Temperature 62 °F 59 °F 37 °F (1952)
Degree Days  
Heating Degree Days 0 1  
Month to date heating degree days 0 9  
Since 1 July heating degree days 0 15  
Cooling Degree Days 5 6  
Month to date cooling degree days 74 66  
Year to date cooling degree days 3673 2660  
Growing Degree Days 20 (Base 50)    
Moisture  
Dew Point 62 °F    
Average Humidity 80    
Maximum Humidity 93    
Minimum Humidity 67    
Precipitation  
Precipitation 5.83 in 0.13 in 5.83 in (2011)
Month to date precipitation 5.83 1.05  
Year to date precipitation 19.90 26.27  
Snow  
Snow 0.00 in 0.00 in 0.00 in ()
Month to date snowfall 0.0 0.0  
Since 1 July snowfall 0.0 0.0  
Since 1 September snowfall 0.0 0.0  
Snow Depth 0.00 in    
Sea Level Pressure  
Sea Level Pressure 29.99 in    
Wind  
Wind Speed 10 mph (North)    
Max Wind Speed 25 mph    
Max Gust Speed 33 mph    
Visibility 6 miles    
Events Fog , Rain , Thunderstorm    
T = Trace of Precipitation, MM = Missing Value Source: NWS Daily Summary

Daily Weather History Graph

Daily Weather History Graph

Search for Another Location

Airport or City:

Trip Planner

Search our weather history database for the weather conditions in past years. The results will help you decide how hot, cold, wet, or windy it might be!

Date:

Astronomy

Oct. 09, 2011 Rise Set
Actual Time 7:27 AM CDT 7:04 PM CDT
Civil Twilight 7:03 AM CDT 7:28 PM CDT
Nautical Twilight 6:35 AM CDT 7:56 PM CDT
Astronomical Twilight 6:06 AM CDT 8:24 PM CDT
Moon 5:37 PM CDT (10/9) 5:19 AM CDT (10/9)
Length of Visible Light 12h 25m
Length of Day
11h 36m
Waxing Gibbous, 95% of the Moon is Illuminated
Oct 9
Waxing Gibbous
Oct 11
Full
Oct 19
Last Quarter
Oct 26
New
Nov 2
First Quarter

Hourly Weather History & Observations

Time (CDT) Temp. Dew Point Humidity Pressure Visibility Wind Dir Wind Speed Gust Speed Precip Events Conditions
12:35 AM 78.8 °F 66.2 °F 65% 30.00 in 10.0 mi SSE 10.4 mph - N/A   Overcast
12:51 AM 78.1 °F 66.0 °F 66% 29.98 in 10.0 mi ESE 10.4 mph - N/A   Overcast
1:16 AM 69.8 °F 62.6 °F 78% 30.01 in 10.0 mi NW 10.4 mph 18.4 mph N/A Thunderstorm Thunderstorm
1:26 AM 66.2 °F 62.6 °F 88% 30.01 in 2.5 mi NNW 17.3 mph 23.0 mph 0.01 in Rain , Thunderstorm Thunderstorms and Rain
1:31 AM 66.2 °F 62.6 °F 88% 30.03 in 0.8 mi NNW 18.4 mph 25.3 mph 0.25 in Rain , Thunderstorm Heavy Thunderstorms and Rain
1:37 AM 64.4 °F 62.6 °F 94% 30.03 in 1.0 mi NNW 11.5 mph 24.2 mph 0.52 in Rain , Thunderstorm Heavy Thunderstorms and Rain
1:44 AM 64.4 °F 62.6 °F 94% 30.03 in 3.0 mi North 11.5 mph 20.7 mph 0.54 in Rain , Thunderstorm Light Thunderstorms and Rain
1:48 AM 64.4 °F 62.6 °F 94% 30.03 in 1.8 mi North 13.8 mph 21.9 mph 0.54 in Rain , Thunderstorm Thunderstorms and Rain
1:51 AM 64.9 °F 62.1 °F 90% 30.02 in 1.0 mi NNW 18.4 mph 26.5 mph 0.70 in Rain , Thunderstorm Heavy Thunderstorms and Rain
1:59 AM 62.6 °F 60.8 °F 94% 30.03 in 0.5 mi North 20.7 mph - 0.49 in Fog , Rain , Thunderstorm Heavy Thunderstorms and Rain
2:32 AM 62.6 °F 60.8 °F 94% 30.05 in 1.8 mi NNE 17.3 mph - 2.15 in Rain , Thunderstorm Heavy Rain
2:38 AM 62.6 °F 60.8 °F 94% 30.04 in 2.0 mi North 18.4 mph - 2.23 in Rain Heavy Rain
2:43 AM 62.6 °F 60.8 °F 94% 30.04 in 3.0 mi NNE 17.3 mph - 2.25 in Rain Heavy Rain
2:51 AM 62.1 °F 60.1 °F 93% 30.01 in 3.0 mi NNE 20.7 mph - 2.29 in Rain Heavy Rain
3:12 AM 62.6 °F 60.8 °F 94% 30.00 in 2.0 mi North 20.7 mph 27.6 mph 0.15 in Rain Heavy Rain
3:21 AM 62.6 °F 60.8 °F 94% 29.99 in 6.0 mi North 18.4 mph 27.6 mph 0.16 in Rain Rain
3:51 AM 63.0 °F 60.1 °F 90% 29.99 in 3.0 mi North 13.8 mph - 0.25 in Rain Heavy Rain
4:05 AM 62.6 °F 60.8 °F 94% 29.99 in 2.5 mi North 17.3 mph - 0.09 in Rain Heavy Rain
4:17 AM 62.6 °F 60.8 °F 94% 29.99 in 3.0 mi North 21.9 mph 28.8 mph 0.14 in Rain Heavy Rain
4:51 AM 63.0 °F 60.1 °F 90% 29.97 in 2.5 mi NNE 12.7 mph 19.6 mph 0.34 in Rain Heavy Rain
5:04 AM 62.6 °F 60.8 °F 94% 29.98 in 4.0 mi North 15.0 mph 21.9 mph 0.08 in Rain Rain
5:18 AM 62.6 °F 60.8 °F 94% 29.99 in 2.5 mi North 15.0 mph - 0.11 in Rain Heavy Rain
5:23 AM 62.6 °F 60.8 °F 94% 29.99 in 1.8 mi North 16.1 mph - 0.21 in Rain Heavy Rain
5:31 AM 62.6 °F 60.8 °F 94% 29.98 in 3.0 mi North 15.0 mph - 0.27 in Rain Heavy Rain
5:42 AM 62.6 °F 60.8 °F 94% 29.99 in 5.0 mi North 17.3 mph - 0.29 in Rain Heavy Rain
5:51 AM 63.0 °F 60.1 °F 90% 29.96 in 5.0 mi North 19.6 mph - 0.31 in Rain Rain
6:28 AM 62.6 °F 60.8 °F 94% 29.98 in 4.0 mi North 18.4 mph 25.3 mph 0.15 in Rain Heavy Rain
6:42 AM 62.6 °F 59.0 °F 88% 29.99 in 2.0 mi North 18.4 mph 27.6 mph 0.27 in Rain Heavy Rain
6:48 AM 62.6 °F 59.0 °F 88% 29.98 in 1.8 mi NNW 19.6 mph 27.6 mph 0.32 in Rain Heavy Rain
6:51 AM 62.1 °F 59.0 °F 90% 29.97 in 1.8 mi NNW 23.0 mph 28.8 mph 0.39 in Rain Heavy Rain
7:17 AM 62.6 °F 59.0 °F 88% 29.99 in 2.5 mi NNW 21.9 mph 27.6 mph 0.32 in Rain Heavy Rain
7:51 AM 62.1 °F 59.0 °F 90% 29.97 in 2.0 mi NNW 20.7 mph 29.9 mph 0.69 in Rain Heavy Rain
7:56 AM 62.6 °F 59.0 °F 88% 29.99 in 3.0 mi North 21.9 mph - 0.03 in Rain Heavy Rain
8:19 AM 62.6 °F 59.0 °F 88% 30.00 in 5.0 mi NNW 20.7 mph 26.5 mph 0.07 in Rain Heavy Rain
8:35 AM 62.6 °F 59.0 °F 88% 30.00 in 3.0 mi NNW 19.6 mph 26.5 mph 0.23 in Rain Heavy Rain
8:46 AM 62.6 °F 59.0 °F 88% 30.02 in 2.5 mi NNW 13.8 mph - 0.31 in Rain Heavy Rain
8:47 AM 62.1 °F 59.0 °F 90% 30.00 in 2.5 mi NNW 13.8 mph - 0.33 in Rain Heavy Rain
8:53 AM 62.6 °F 59.0 °F 88% 30.01 in 1.8 mi NNW 17.3 mph 23.0 mph 0.06 in Rain Heavy Rain
9:11 AM 62.6 °F 59.0 °F 88% 30.03 in 2.0 mi NNW 12.7 mph - 0.33 in Rain Heavy Rain
9:25 AM 62.6 °F 59.0 °F 88% 30.02 in 4.0 mi North 18.4 mph - 0.39 in Rain Heavy Rain
9:51 AM 62.1 °F 59.0 °F 90% 29.99 in 10.0 mi North 17.3 mph - 0.44 in Rain Light Rain
10:51 AM 63.0 °F 60.1 °F 90% 29.99 in 9.0 mi North 17.3 mph - 0.04 in Rain Light Rain
11:00 AM 62.6 °F 60.8 °F 94% 30.00 in 10.0 mi NNE 15.0 mph - 0.00 in Rain Light Rain
11:17 AM 62.6 °F 60.8 °F 94% 29.98 in 10.0 mi North 15.0 mph - 0.01 in Rain Light Rain
11:51 AM 63.0 °F 61.0 °F 93% 29.98 in 10.0 mi NNW 6.9 mph - 0.02 in Rain Light Rain
12:51 PM 64.9 °F 62.1 °F 90% 29.98 in 10.0 mi NNW 5.8 mph - 0.03 in   Overcast
1:51 PM 66.0 °F 63.0 °F 90% 29.95 in 10.0 mi ENE 3.5 mph - 0.00 in   Overcast
2:51 PM 68.0 °F 64.0 °F 87% 29.94 in 10.0 mi Variable 3.5 mph - N/A   Overcast
3:30 PM 68.0 °F 62.6 °F 83% 29.96 in 10.0 mi Calm Calm - N/A   Overcast
3:51 PM 68.0 °F 63.0 °F 84% 29.95 in 10.0 mi Calm Calm - N/A   Overcast
4:10 PM 69.8 °F 64.4 °F 83% 29.96 in 10.0 mi West 3.5 mph - N/A   Mostly Cloudy
4:32 PM 69.8 °F 64.4 °F 83% 29.96 in 10.0 mi Calm Calm - N/A   Partly Cloudy
4:51 PM 69.1 °F 64.0 °F 84% 29.95 in 10.0 mi SW 3.5 mph - N/A   Partly Cloudy
5:51 PM 69.8 °F 62.6 °F 78% 29.97 in 10.0 mi WSW 3.5 mph - N/A   Mostly Cloudy
6:26 PM 69.8 °F 62.6 °F 78% 29.98 in 10.0 mi Calm Calm - N/A   Mostly Cloudy
6:51 PM 69.1 °F 63.0 °F 81% 29.97 in 10.0 mi WNW 3.5 mph - N/A   Overcast
7:51 PM 69.1 °F 64.0 °F 84% 29.98 in 10.0 mi NNW 4.6 mph - N/A   Overcast
8:06 PM 68.0 °F 64.4 °F 88% 29.99 in 10.0 mi NNW 4.6 mph - N/A   Scattered Clouds
8:51 PM 66.9 °F 64.0 °F 90% 29.99 in 10.0 mi NNW 3.5 mph - N/A   Clear
9:25 PM 66.2 °F 64.4 °F 94% 30.02 in 10.0 mi Calm Calm - N/A   Mostly Cloudy
9:51 PM 68.0 °F 64.9 °F 90% 30.00 in 10.0 mi Calm Calm - N/A   Overcast
10:51 PM 68.0 °F 64.0 °F 87% 30.02 in 10.0 mi NNW 5.8 mph - N/A   Overcast
11:24 PM 66.2 °F 64.4 °F 94% 30.03 in 10.0 mi North 4.6 mph - N/A   Overcast
11:51 PM 66.9 °F 64.0 °F 90% 30.01 in 10.0 mi NNW 5.8 mph - N/A   Overcast